Torna al catalogo

GRITSS

AttivoScienzaSSO
NORAD 69931·PAYLOAD·🇺🇸 United States

Lanciato Jul 7, 2026 da Vandenberg Space Force Base

Loading…

Prossimi Passaggi (prossime 24 ore)

TLE

AggiornatoSource: Space-Track

Epoca: Sep 14, 2026, 03:11 UTC

1 69931U 26156BQ  26257.13329908  .00001158  00000-0  11840-3 0  9997
2 69931  97.7442 156.4887 0007870 289.5825  70.4544 14.92455892 10265

Traccia GRITSS in tempo reale con AllMySat

Download on the App Store